sat.trackr.live / text

‹ back to catalog

STARLINK-35244

NORAD 65829 · 2025-221G

PAYLOAD ACTIVE UNKNOWN

§ Identity

Operator
Country
US
Launch date
2025-09-29
Launch site
AFWTR
Launch vehicle
Mass (kg)
RCS (m²)

Purposes: comms

External: N2YO · Heavens-Above · Gunter

§ Orbital elements

Epoch: 2026-09-20T06:27:58.736448Z

Period
94.01 min
Inclination
53.1600°
Eccentricity
0.0001239
Mean motion
15.31715173 rev/d
Perigee alt
469.8 km
Apogee alt
471.5 km
Semi-major
6,848.8 km
B*
4.3541e-4
RAAN
266.0598°
Arg perigee
77.1947°
Mean anomaly
282.9193°
Rev number
5,581

§ Raw data

STARLINK-352441 65829U 25221G   26263.26942982  .00013176  00000+0  43541-3 0  99902 65829  53.1600 266.0598 0001239  77.1947 282.9193 15.31715173 55810

JSON: /api/v1/satellites/65829 · /tle

For live sub-satellite position, see the globe view (requires WebGL).

§ Visibility from observer

Set your observer location to see the next 7 days of passes ≥ 10°. The values pass through the URL so the page stays shareable.

No JS? Fill the form by hand. The geolocation button needs JavaScript.